Погода в Гоянии

Бразилия     16°41′08″S   49°15′37″W
темп.,
°C
ветер,
м/с
пор.,
м/с
влажн.,
%
обл.,
%
осадки,
мм/ч
давл.,
гПа
погр.,
м
6 мая, чт
чт600:00+18св11605 0.0 101616
03:00+17св11637 0.0 101512
06:00+16всв11655 0.0 101611
09:00+23в11480 0.0 1018241
12:00+29св13324 0.0 10162031
15:00+29ссз232916 0.0 10132779
18:00+25зсз114397 0.0 101442
21:00+23сз114716 0.0 101621
7 мая, пт
пт700:00+20ссв11560 0.0 101619
03:00+19зюз11574 0.0 101511
06:00+18юз115521 0.0 101617
09:00+23юв22440 0.0 1018388
12:00+27ююв22330 0.0 10171340
15:00+29всв23301 0.0 10142392
18:00+24вюв224346 0.0 101433
21:00+21вюв11460 0.0 101715
8 мая, сб
сб800:00+19ююв11510 0.0 101811
03:00+17юв11540 0.0 101733
06:00+16юв23600 0.0 101876
09:00+22вюв35490 0.0 1020302
12:00+29вюв33320 0.0 10181298
15:00+30в22270 0.0 10152587
18:00+24в23451 0.0 101576
21:00+21вюв11470 0.0 101711
9 мая, вс
вс900:00+20св12510 0.0 101854
03:00+19ююв01540 0.0 101611
06:00+17ююв12580 0.0 101838
09:00+23всв48560 0.0 1019579
12:00+29всв45414 0.0 10171630
15:00+29в323663 0.0 10152449
18:00+25всв244931 0.0 1016133
21:00+22в37541 0.0 1017208
10 мая, пн
пн1000:00+22в26588 0.0 1017210
03:00+20вюв276010 0.0 1016210
06:00+18в28671 0.0 1017282
09:00+23всв59550 0.0 1018593
12:00+28в55393 0.0 10171628
15:00+29в44341 0.0 10142410
18:00+24всв35497 0.0 1015189
21:00+21в39540 0.0 1017272